Weather History for Ahoskie, NC

Change the Weather History Date:

Sunday, March 2, 2014

  Actual Average (KEMV) Record (KEMV)
Temperature  
Mean Temperature 50 °F -  
Max Temperature 71 °F 59 °F 78 °F (2006)
Min Temperature 28 °F 31 °F 19 °F (1986)
Degree Days  
Heating Degree Days 16    
Moisture  
Dew Point 37 °F    
Average Humidity 65    
Maximum Humidity 98    
Minimum Humidity 33    
Precipitation  
Precipitation 0.00 in - - ()
Sea Level Pressure  
Sea Level Pressure 30.08 in    
Wind  
Wind Speed 2 mph (SSW)    
Max Wind Speed 14 mph    
Max Gust Speed 23 mph    
Visibility 10 miles    
Events      
Averages and records for this station are not official NWS values.
T = Trace of Precipitation, MM = Missing Value Source: NWS Daily Summary

Daily Weather History Graph

Daily Weather History Graph

Search for Another Location

Airport:

Trip Planner

Search our weather history database for the weather conditions in past years. The results will help you decide how hot, cold, wet, or windy it might be!

Date:

Astronomy

Mar. 02, 2014 Rise Set
Actual Time 6:37 AM EST 6:04 PM EST
Civil Twilight 6:11 AM EST 6:30 PM EST
Nautical Twilight 5:42 AM EST 7:00 PM EST
Astronomical Twilight 5:12 AM EST 7:29 PM EST
Moon 7:11 AM EST (3/2) 7:53 PM EST (3/2)
Length of Visible Light 12h 18m
Length of Day
11h 26m
Waxing Crescent, 3% of the Moon is Illuminated
Mar 2
Waxing Crescent
Mar 8
First Quarter
Mar 16
Full
Mar 23
Last Quarter
Mar 30
New

Hourly Weather History & Observations

Time (EST) Temp. Windchill Dew Point Humidity Pressure Visibility Wind Dir Wind Speed Gust Speed Precip Events Conditions
12:15 AM 31.6 °F - 30.0 °F 94% 30.24 in 10.0 mi Calm Calm - N/A   Clear
12:35 AM 32.0 °F - 30.2 °F 93% 30.23 in 10.0 mi Calm Calm - N/A   Clear
12:55 AM 31.5 °F - 29.8 °F 94% 30.24 in 10.0 mi Calm Calm - N/A   Clear
1:15 AM 30.6 °F - 29.1 °F 94% 30.24 in 10.0 mi Calm Calm - N/A   Clear
1:35 AM 31.3 °F - 30.0 °F 95% 30.24 in 10.0 mi Calm Calm - N/A   Clear
1:55 AM 31.1 °F - 29.3 °F 93% 30.24 in 10.0 mi Calm Calm - N/A   Clear
2:15 AM 30.2 °F - 28.8 °F 94% 30.23 in 10.0 mi Calm Calm - N/A   Clear
2:35 AM 30.2 °F - 29.3 °F 96% 30.22 in 10.0 mi Calm Calm - N/A   Clear
2:55 AM 28.4 °F - 27.5 °F 96% 30.20 in 10.0 mi Calm Calm - N/A   Clear
3:15 AM 30.6 °F - 29.5 °F 96% 30.19 in 10.0 mi Calm Calm - N/A   Clear
3:35 AM 30.2 °F - 29.1 °F 96% 30.19 in 10.0 mi Calm Calm - N/A   Clear
3:55 AM 29.7 °F - 28.6 °F 96% 30.19 in 10.0 mi Calm Calm - N/A   Clear
4:15 AM 29.7 °F - 28.8 °F 96% 30.19 in 10.0 mi Calm Calm - N/A   Clear
4:35 AM 29.1 °F - 28.2 °F 96% 30.19 in 10.0 mi Calm Calm - N/A   Clear
4:55 AM 29.8 °F - 28.8 °F 96% 30.19 in 10.0 mi Calm Calm - N/A   Clear
5:15 AM 30.9 °F - 29.8 °F 96% 30.18 in 10.0 mi Calm Calm - N/A   Clear
5:35 AM 31.1 °F - 30.0 °F 96% 30.19 in 10.0 mi Calm Calm - N/A   Clear
5:55 AM 30.2 °F 26.7 °F 29.3 °F 96% 30.19 in 7.0 mi SSE 3.5 mph - N/A   Clear
6:15 AM 29.3 °F - 28.4 °F 96% 30.20 in 7.0 mi Calm Calm - N/A   Clear
6:35 AM 30.6 °F - 29.7 °F 96% 30.21 in 7.0 mi Calm Calm - N/A   Clear
6:55 AM 31.6 °F - 30.9 °F 97% 30.20 in 7.0 mi Calm Calm - N/A   Clear
7:10 AM 32.0 °F - 31.5 °F 98% 30.20 in 7.0 mi Calm Calm - N/A   Clear
7:35 AM 37.4 °F - 35.2 °F 92% 30.20 in 10.0 mi Calm Calm - N/A   Clear
7:55 AM 41.4 °F - 37.8 °F 87% 30.20 in 10.0 mi Calm Calm - N/A   Clear
8:15 AM 44.8 °F - 39.2 °F 81% 30.20 in 10.0 mi Calm Calm - N/A   Clear
8:35 AM 47.1 °F - 39.0 °F 73% 30.21 in 10.0 mi Calm Calm - N/A   Clear
8:55 AM 49.1 °F - 39.7 °F 70% 30.21 in 10.0 mi Calm Calm - N/A   Clear
9:15 AM 51.8 °F - 39.4 °F 63% 30.20 in 10.0 mi Calm Calm - N/A   Clear
9:35 AM 53.6 °F - 39.4 °F 59% 30.18 in 10.0 mi SW 3.5 mph - N/A   Clear
9:55 AM 56.5 °F - 39.7 °F 54% 30.17 in 10.0 mi Calm Calm - N/A   Clear
10:15 AM 58.1 °F - 39.0 °F 49% 30.16 in 10.0 mi SW 3.5 mph - N/A   Clear
10:35 AM 59.4 °F - 39.4 °F 48% 30.15 in 10.0 mi SSW 4.6 mph - N/A   Clear
10:50 AM 59.4 °F - 39.2 °F 47% 30.14 in 10.0 mi SSW 6.9 mph - N/A   Clear
11:15 AM 59.4 °F - 39.2 °F 47% 30.12 in 10.0 mi SSW 5.8 mph 16.1 mph N/A   Clear
11:35 AM 61.0 °F - 39.6 °F 45% 30.11 in 10.0 mi SSW 5.8 mph - N/A   Clear
11:55 AM 62.2 °F - 39.9 °F 44% 30.10 in 10.0 mi South 5.8 mph - N/A   Clear
12:15 PM 64.0 °F - 40.3 °F 42% 30.07 in 10.0 mi SSW 6.9 mph - N/A   Clear
12:35 PM 65.8 °F - 41.2 °F 41% 30.06 in 10.0 mi South 6.9 mph 19.6 mph N/A   Clear
12:50 PM 66.4 °F - 41.0 °F 40% 30.03 in 10.0 mi South 13.8 mph 17.3 mph N/A   Clear
1:15 PM 68.0 °F - 40.3 °F 36% 30.01 in 10.0 mi SSW 9.2 mph 23.0 mph N/A   Clear
1:35 PM 68.2 °F - 40.5 °F 36% 30.00 in 10.0 mi South 13.8 mph 17.3 mph N/A   Clear
1:55 PM 69.8 °F - 40.6 °F 35% 29.98 in 10.0 mi SSW 10.4 mph - N/A   Clear
2:15 PM 69.4 °F - 40.1 °F 34% 29.98 in 10.0 mi South 13.8 mph 21.9 mph N/A   Clear
2:35 PM 69.8 °F - 41.0 °F 35% 29.97 in 10.0 mi SSW 10.4 mph 16.1 mph N/A   Clear
2:55 PM 71.4 °F - 41.0 °F 33% 29.97 in 10.0 mi SSW 8.1 mph - N/A   Clear
3:15 PM 70.3 °F - 40.1 °F 33% 29.97 in 10.0 mi SSW 10.4 mph 17.3 mph N/A   Clear
3:30 PM 70.7 °F - 40.5 °F 33% 29.98 in 10.0 mi SSW 6.9 mph - N/A   Clear
3:55 PM 70.2 °F - 40.6 °F 34% 29.98 in 10.0 mi South 9.2 mph - N/A   Clear
4:10 PM 69.8 °F - 40.5 °F 34% 29.98 in 10.0 mi SW 5.8 mph - N/A   Clear
4:35 PM 68.7 °F - 40.3 °F 35% 29.98 in 10.0 mi SSW 5.8 mph - N/A   Clear
4:55 PM 67.1 °F - 40.8 °F 38% 29.98 in 10.0 mi SSW 3.5 mph - N/A   Clear
5:15 PM 66.9 °F - 41.2 °F 39% 29.98 in 10.0 mi SSW 3.5 mph - N/A   Clear
5:35 PM 65.8 °F - 41.2 °F 41% 29.97 in 10.0 mi SSW 4.6 mph - N/A   Clear
5:55 PM 64.0 °F - 41.4 °F 43% 29.97 in 10.0 mi SSW 5.8 mph - N/A   Clear
6:15 PM 62.6 °F - 41.5 °F 46% 29.98 in 10.0 mi Calm Calm - N/A   Clear
6:35 PM 62.6 °F - 41.7 °F 46% 29.97 in 10.0 mi Calm Calm - N/A   Clear
6:55 PM 60.4 °F - 41.9 °F 50% 29.96 in 10.0 mi South 3.5 mph - N/A   Clear
7:15 PM 60.8 °F - 41.9 °F 50% 29.96 in 10.0 mi SSW 3.5 mph - N/A   Clear
7:35 PM 61.0 °F - 42.1 °F 50% 29.95 in 10.0 mi SSW 4.6 mph - N/A   Clear
7:55 PM 60.8 °F - 42.1 °F 50% 29.95 in 10.0 mi SSW 3.5 mph - N/A   Clear
8:15 PM 58.6 °F - 42.6 °F 55% 29.96 in 10.0 mi Calm Calm - N/A   Clear
8:35 PM 57.0 °F - 42.8 °F 59% 29.96 in 10.0 mi Calm Calm - N/A   Clear
8:55 PM 56.8 °F - 42.6 °F 59% 29.96 in 10.0 mi Calm Calm - N/A   Clear
9:15 PM 55.9 °F - 42.4 °F 61% 29.96 in 10.0 mi Calm Calm - N/A   Clear
9:35 PM 56.5 °F - 42.8 °F 60% 29.96 in 10.0 mi Calm Calm - N/A   Scattered Clouds
9:55 PM 56.3 °F - 42.8 °F 61% 29.96 in 10.0 mi Calm Calm - N/A   Scattered Clouds
10:10 PM 55.4 °F - 44.4 °F 67% 29.95 in 10.0 mi Calm Calm - N/A   Scattered Clouds
10:35 PM 54.9 °F - 43.2 °F 65% 29.94 in 10.0 mi Calm Calm - N/A   Clear
10:55 PM 56.3 °F - 43.0 °F 61% 29.93 in 10.0 mi Calm Calm - N/A   Clear
11:15 PM 53.6 °F - 42.8 °F 67% 29.93 in 10.0 mi South 5.8 mph - N/A   Clear
11:35 PM 55.4 °F - 43.0 °F 63% 29.91 in 10.0 mi South 4.6 mph - N/A   Clear
11:55 PM 54.0 °F - 42.8 °F 66% 29.90 in 10.0 mi South 6.9 mph - N/A   Clear